Topeka Forbes, KS

2:50 AM CST on December 17, 2017 (GMT -0600)
Forbes

Weather History for KFOE - April, 2014

Change the Weather History Date:

Friday, April 4, 2014

  Actual Average Record
Temperature  
Mean Temperature 40 °F -  
Max Temperature 50 °F 58 °F 83 °F (1967)
Min Temperature 32 °F 37 °F 20 °F (1972)
Degree Days  
Heating Degree Days 24    
Moisture  
Dew Point 29 °F    
Average Humidity 64    
Maximum Humidity 83    
Minimum Humidity 43    
Precipitation  
Precipitation 0.00 in - - ()
Sea Level Pressure  
Sea Level Pressure 30.05 in    
Wind  
Wind Speed 18 mph (NW)    
Max Wind Speed 25 mph    
Max Gust Speed 34 mph    
Visibility 10 miles    
Events      
Averages and records for this station are not official NWS values.
T = Trace of Precipitation, MM = Missing Value Source: NWS Daily Summary

Daily Weather History Graph

Daily Weather History Graph

Search for Another Location

Airport or City:

Trip Planner

Search our weather history database for the weather conditions in past years. The results will help you decide how hot, cold, wet, or windy it might be!

Date:

Astronomy

Apr. 04, 2014 Rise Set
Actual Time 7:02 AM CDT 7:49 PM CDT
Civil Twilight 6:35 AM CDT 8:16 PM CDT
Nautical Twilight 6:03 AM CDT 8:48 PM CDT
Astronomical Twilight 5:30 AM CDT 9:21 PM CDT
Moon 10:22 AM CDT (4/4) 12:06 AM CDT (4/4)
Length of Visible Light 13h 40m
Length of Day
12h 46m
Waxing Crescent, 25% of the Moon is Illuminated
Apr 4
Waxing Crescent
Apr 7
First Quarter
Apr 15
Full
Apr 22
Last Quarter
Apr 29
New

Hourly Weather History & Observations

Time (CDT) Temp. Windchill Dew Point Humidity Pressure Visibility Wind Dir Wind Speed Gust Speed Precip Events Conditions
12:00 AM 37.9 °F 27.1 °F 33.1 °F 83% 29.82 in 10.0 mi WNW 23.0 mph 31.1 mph N/A   Overcast
12:22 AM 37.9 °F 27.6 °F 32.0 °F 79% 29.84 in 10.0 mi WNW 20.7 mph 29.9 mph N/A   Overcast
12:53 AM 37.9 °F 27.3 °F 32.0 °F 79% 29.87 in 10.0 mi NW 21.9 mph 31.1 mph N/A   Overcast
1:53 AM 37.9 °F 27.6 °F 30.9 °F 76% 29.90 in 10.0 mi NW 20.7 mph 28.8 mph N/A   Overcast
2:53 AM 39.0 °F 29.9 °F 30.9 °F 73% 29.91 in 10.0 mi NW 17.3 mph - N/A   Overcast
3:53 AM 39.0 °F 28.0 °F 30.0 °F 70% 29.92 in 10.0 mi NW 25.3 mph 34.5 mph N/A   Overcast
4:53 AM 39.0 °F 28.3 °F 30.0 °F 70% 29.94 in 10.0 mi NW 24.2 mph 33.4 mph N/A   Overcast
5:53 AM 39.0 °F 28.5 °F 28.9 °F 67% 29.96 in 10.0 mi NW 23.0 mph 34.5 mph N/A   Overcast
6:53 AM 37.9 °F 27.3 °F 28.9 °F 70% 30.00 in 10.0 mi NW 21.9 mph 32.2 mph N/A   Overcast
7:53 AM 37.9 °F 27.6 °F 28.0 °F 68% 30.04 in 10.0 mi NNW 20.7 mph 28.8 mph N/A   Overcast
8:53 AM 37.9 °F 27.9 °F 27.0 °F 65% 30.06 in 10.0 mi NW 19.6 mph 26.5 mph N/A   Overcast
9:07 AM 39.0 °F 29.6 °F 28.0 °F 65% 30.05 in 10.0 mi NW 18.4 mph 25.3 mph N/A   Overcast
9:19 AM 39.0 °F 30.6 °F 28.0 °F 65% 30.05 in 10.0 mi NW 15.0 mph 23.0 mph N/A   Overcast
9:53 AM 39.0 °F 29.9 °F 28.0 °F 65% 30.09 in 10.0 mi NW 17.3 mph - N/A   Overcast
10:53 AM 39.9 °F 30.2 °F 28.0 °F 63% 30.12 in 10.0 mi NW 20.7 mph - N/A   Overcast
11:02 AM 41.0 °F 31.9 °F 28.0 °F 60% 30.10 in 10.0 mi WNW 19.6 mph - N/A   Overcast
11:53 AM 42.1 °F 33.3 °F 27.0 °F 55% 30.13 in 10.0 mi NW 19.6 mph 26.5 mph N/A   Overcast
12:53 PM 43.0 °F 34.8 °F 27.0 °F 53% 30.14 in 10.0 mi NW 18.4 mph - N/A   Overcast
1:53 PM 46.0 °F 38.8 °F 28.0 °F 50% 30.13 in 10.0 mi WNW 18.4 mph 25.3 mph N/A   Overcast
2:53 PM 46.9 °F - 28.0 °F 48% 30.12 in 10.0 mi NW 16.1 mph - N/A   Mostly Cloudy
3:53 PM 46.9 °F - 28.0 °F 48% 30.11 in 10.0 mi NW 16.1 mph 24.2 mph N/A   Mostly Cloudy
4:53 PM 48.9 °F - 28.0 °F 44% 30.12 in 10.0 mi NNW 11.5 mph - N/A   Partly Cloudy
5:53 PM 48.9 °F - 27.0 °F 43% 30.12 in 10.0 mi NNW 9.2 mph - N/A   Scattered Clouds
6:53 PM 46.9 °F - 28.0 °F 48% 30.13 in 10.0 mi NW 9.2 mph - N/A   Scattered Clouds
7:53 PM 41.0 °F 36.4 °F 28.0 °F 60% 30.14 in 10.0 mi NW 6.9 mph - N/A   Clear
8:53 PM 37.9 °F - 28.0 °F 68% 30.16 in 10.0 mi Calm Calm - N/A   Clear
9:53 PM 36.0 °F - 27.0 °F 70% 30.17 in 10.0 mi Calm Calm - N/A   Clear
10:53 PM 33.1 °F - 27.0 °F 78% 30.19 in 10.0 mi Calm Calm - N/A   Clear
11:53 PM 32.0 °F 28.7 °F 26.1 °F 79% 30.19 in 10.0 mi WSW 3.5 mph - N/A   Clear